FW4041 Weather Reports


time (UTC)temp
C
wind
direction
speed
KPH
gust
KPH
rain 1hr
cm
rain 24hr
cm
rain mn
cm
humidity
%
barometer
mb
20260906130029 17 233 0.0 0.0 0.00 0.00 0.00 97 1021.5
20260906124528 17 233 0.0 0.0 0.00 0.00 0.00 96 1021.3
20260906123034 17 233 0.0 0.0 0.00 0.00 0.00 96 1021.0
20260906121540 17 233 0.0 0.0 0.00 0.00 0.00 96 1021.1
20260906120019 17 233 0.0 0.0 0.00 0.00 0.00 96 1021.0
20260906114530 17 233 0.0 0.0 0.00 0.00 0.00 96 1020.6
20260906113043 17 233 0.0 0.0 0.00 0.00 0.00 96 1020.4
20260906111533 17 233 0.0 0.0 0.00 0.00 0.00 96 1020.3
20260906110019 17 233 0.0 0.0 0.00 0.00 0.00 96 1020.2
20260906104529 17 233 0.0 0.0 0.00 0.00 0.00 96 1020.1
20260906103002 17 233 0.0 0.0 0.00 0.00 0.00 96 1020.1
20260906101508 17 233 0.0 0.0 0.00 0.00 0.00 96 1020.1
20260906100019 17 233 0.0 0.0 0.00 0.00 0.00 96 1020.1
20260906094518 17 233 0.0 0.0 0.00 0.00 0.00 95 1020.0
20260906093027 17 233 0.0 0.0 0.00 0.00 0.00 95 1020.0
20260906091505 17 233 0.0 0.0 0.00 0.00 0.00 95 1019.8
20260906090010 17 233 0.0 0.0 0.00 0.00 0.00 95 1019.8
20260906084514 17 233 0.0 0.0 0.00 0.00 0.00 95 1020.0
20260906083019 17 233 0.0 0.0 0.00 0.00 0.00 95 1019.9
20260906081539 17 233 0.0 0.0 0.00 0.00 0.00 95 1019.9
20260906080032 17 233 0.0 0.0 0.00 0.00 0.00 95 1019.8
20260906074519 17 233 0.0 0.0 0.00 0.00 0.00 95 1019.8
20260906073016 17 233 0.0 0.0 0.00 0.00 0.00 95 1019.8
20260906071524 17 233 0.0 0.0 0.00 0.00 0.00 95 1019.8
20260906070027 17 233 0.0 0.0 0.00 0.00 0.00 95 1019.8
20260906064531 17 233 0.0 0.0 0.00 0.00 0.00 94 1019.9
20260906063014 17 233 0.0 0.0 0.00 0.00 0.00 94 1019.9
20260906061518 17 233 0.0 0.0 0.00 0.00 0.00 94 1019.9
20260906060028 17 233 0.0 0.0 0.00 0.00 0.00 94 1019.8
20260906054532 17 233 0.0 0.0 0.00 0.00 0.00 94 1019.8
20260906053035 17 233 0.0 0.0 0.00 0.00 0.00 94 1019.8
20260906051517 17 233 0.0 0.0 0.00 0.00 0.00 93 1019.8
20260906050032 17 233 0.0 0.0 0.00 0.00 0.00 93 1019.6
20260906044534 17 233 0.0 0.0 0.00 0.00 0.00 93 1019.5
20260906043031 17 233 0.0 0.0 0.00 0.00 0.00 92 1019.5
20260906041534 17 233 0.0 0.0 0.00 0.00 0.00 91 1019.1
20260906040024 18 233 0.0 0.0 0.00 0.00 0.00 91 1019.0
20260906034523 18 233 0.0 0.0 0.00 0.00 0.00 91 1019.0
20260906033039 18 238 0.0 0.0 0.00 0.00 0.00 91 1019.1
20260906031531 18 238 0.0 0.0 0.00 0.00 0.00 92 1019.1
20260906030030 18 202 0.0 0.0 0.00 0.00 0.00 92 1018.9
20260906024517 19 202 0.0 0.0 0.00 0.00 0.00 91 1018.8
20260906023024 19 202 0.0 0.0 0.00 0.00 0.00 90 1018.7
20260906021528 20 202 0.0 0.0 0.00 0.00 0.00 90 1018.5
20260906020010 20 202 0.0 0.0 0.00 0.00 0.00 89 1018.4
20260906014518 20 200 0.0 0.0 0.00 0.00 0.00 89 1018.5
20260906013008 20 199 0.0 0.0 0.00 0.00 0.00 89 1018.5
20260906011503 21 176 0.0 0.0 0.00 0.00 0.00 89 1018.5
20260906010006 21 228 0.0 0.0 0.00 0.00 0.00 89 1018.5
20260906004529 21 158 0.0 0.0 0.00 0.00 0.00 90 1018.6
20260906003016 21 164 0.0 0.0 0.00 0.00 0.00 90 1018.4
20260906001503 21 193 0.0 0.0 0.00 0.00 0.00 90 1018.6
20260906000004 21 201 0.0 3.2 0.00 0.00 0.00 89 1018.5
20260905234507 22 219 0.0 0.0 0.00 0.00 0.00 88 1018.2
20260905233035 22 195 0.0 0.0 0.00 0.00 0.00 88 1018.4
20260905231518 22 200 0.0 3.2 0.00 0.00 0.00 87 1018.4
20260905230004 23 319 0.0 3.2 0.00 0.00 0.00 86 1018.2
20260905224508 23 117 0.0 1.6 0.00 0.00 0.00 85 1018.1
20260905223007 23 65 0.0 3.2 0.00 0.00 0.00 85 1018.1
20260905221517 23 236 0.0 1.6 0.00 0.00 0.00 85 1018.0
20260905220023 23 110 0.0 8.0 0.00 0.00 0.00 84 1017.9
20260905214503 23 94 0.0 9.7 0.00 0.00 0.00 84 1017.6
20260905213035 24 44 3.2 9.7 0.00 0.00 0.00 82 1017.7
20260905211511 25 354 4.8 14.5 0.00 0.00 0.00 82 1017.4
20260905210017 25 319 0.0 4.8 0.00 0.00 0.00 82 1017.4
20260905204524 25 167 0.0 12.9 0.00 0.00 0.00 83 1017.5
20260905203004 24 314 0.0 9.7 0.00 0.00 0.00 85 1017.6
20260905201518 24 262 0.0 4.8 0.00 0.00 0.00 83 1017.6
20260905200016 25 198 0.0 6.4 0.00 0.00 0.00 82 1017.5
20260905194522 25 155 0.0 3.2 0.00 0.00 0.00 81 1017.5
20260905193029 25 233 0.0 0.0 0.00 0.00 0.00 81 1017.6
20260905191530 25 303 0.0 8.0 0.00 0.00 0.00 79 1017.5
20260905190010 26 205 0.0 6.4 0.00 0.00 0.00 79 1017.5
20260905184535 26 300 0.0 4.8 0.00 0.00 0.00 76 1017.6
20260905183024 26 91 0.0 6.4 0.00 0.00 0.00 78 1017.6
20260905181529 25 333 1.6 4.8 0.00 0.00 0.00 78 1017.7
20260905180032 25 26 0.0 9.7 0.00 0.00 0.00 80 1017.8
20260905174513 25 175 0.0 11.3 0.00 0.00 0.00 79 1017.8
20260905173025 25 309 1.6 6.4 0.00 0.00 0.00 83 1017.9
20260905171537 24 278 0.0 9.7 0.00 0.00 0.00 83 1017.9
20260905170003 24 314 0.0 4.8 0.00 0.00 0.00 85 1017.9
20260905164503 24 227 0.0 3.2 0.00 0.00 0.00 84 1018.0
20260905163002 23 265 0.0 3.2 0.00 0.00 0.00 87 1018.0
20260905161502 23 231 0.0 1.6 0.00 0.00 0.00 88 1017.9
20260905160010 23 261 0.0 1.6 0.00 0.00 0.00 88 1018.0
20260905154505 22 316 0.0 3.2 0.00 0.00 0.00 91 1017.8
20260905153017 22 313 1.6 6.4 0.00 0.03 0.00 93 1018.0
20260905151506 21 228 0.0 0.0 0.00 0.38 0.00 95 1017.9
20260905150002 21 174 0.0 0.0 0.00 0.89 0.00 95 1017.7
20260905144506 21 313 0.0 3.2 0.00 0.89 0.00 96 1017.4
20260905143003 21 314 0.0 0.0 0.00 0.89 0.00 96 1017.2
20260905141505 21 318 0.0 0.0 0.00 0.89 0.00 97 1016.9
20260905140007 21 319 0.0 1.6 0.00 0.89 0.00 97 1016.7
20260905134507 21 264 0.0 0.0 0.00 0.97 0.00 97 1017.0
20260905133010 21 319 0.0 0.0 0.00 0.97 0.00 97 1017.1
20260905131506 21 173 0.0 0.0 0.00 0.97 0.00 97 1017.0